Regional Weather Roundup
Issued by NWS

Home | Current Version | Previous Version | Graphics & Text | Print | Product List | Glossary On
Versions: 1 2 3 4 5 6 7 8 9 10 11 12 13 14 15 16 17 18 19 20 21 22 23 24 25 26 27 28 29 30 31 32 33 34 35 36 37 38 39 40 41 42 43 44 45 46 47 48 49 50
224
ASUS45 KBOI 231110
RWRID

IDAHO REGIONAL WEATHER ROUNDUP
NATIONAL WEATHER SERVICE BOISE ID
500 AM MDT MON APR 23 2018

NOTE: "FAIR" INDICATES FEW OR NO CLOUDS BELOW 12000 FEET
WITH NO SIGNIFICANT WEATHER AND/OR OBSTRUCTIONS TO VISIBILITY

IDZ012-014-231200-
SOUTHWEST IDAHO


CITY           SKY/WX    TMP DP  RH WIND       PRES   REMARKS
BOISE          CLEAR     41  26  55 NW14      30.16R
CALDWELL       CLEAR     41  27  57 W12       30.19R
MOUNTAIN HOME  CLEAR     41  25  53 NW20      30.14R
$$

IDZ016-017-231200-
SOUTHCENTRAL IDAHO


CITY           SKY/WX    TMP DP  RH WIND       PRES   REMARKS
BURLEY         CLEAR     40  25  55 W14G30    30.09R WCI  32
JEROME         CLEAR     38  26  62 SW17      30.10R WCI  28
TWIN FALLS     CLEAR     38  26  62 SW18      30.12R WCI  28
$$

IDZ019>023-231200-
SOUTHEAST IDAHO


CITY           SKY/WX    TMP DP  RH WIND       PRES   REMARKS
IDAHO FALLS    CLOUDY    42  39  89 CALM      30.08R
POCATELLO      CLOUDY    45  37  73 SW9       30.08R
REXBURG        CLOUDY    42  38  85 SE8       30.07R
$$

IDZ006-010-011-018-031-032-231200-
CENTRAL IDAHO MOUNTAINS


CITY           SKY/WX    TMP DP  RH WIND       PRES   REMARKS
MCCALL         CLEAR     36  21  54 N12G21    30.14R WCI  28
HAILEY         CLEAR     36  32  87 NW6       30.06R WCI  31
STANLEY          N/A     28  24  85 CALM      30.09S
SALMON         CLOUDY    46  30  53 N12       30.12R
CHALLIS        CLOUDY    45  28  51 N10       30.09R
$$

IDZ002-004-006-007-026-231200-
NORTHERN IDAHO


CITY           SKY/WX    TMP DP  RH WIND       PRES   REMARKS
LEWISTON       CLEAR     40  29  64 CALM      30.27R
LOWELL           N/A     36  34  92 CALM      30.31R
COEUR D`ALENE  CLEAR     36  26  67 NE13      30.28S WCI  27
MULLAN PASS    CLEAR     30  16  56 CALM      30.21R
$$




USA.gov is the U.S. government's official web portal to all federal, state and local government web resources and services.